Time,TemperatureF,DewpointF,PressureIn,WindDirection,WindDirectionDegrees,WindSpeedMPH,WindSpeedGustMPH,Humidity,HourlyPrecipIn,Conditions,Clouds,dailyrainin,SoftwareType,DateUTC
2013-11-05 00:01:00,49.3,36.4,30.23,SSE,149,3.6,7.8,61,0.00,,---,0.00,VWS V13.01,2013-11-05 05:01:00,
2013-11-05 00:02:00,49.3,36.4,30.26,SSE,167,4.9,4.9,61,0.00,,---,0.00,VWS V13.01,2013-11-05 05:02:00,
2013-11-05 00:04:00,49.3,36.4,30.26,SE,128,5.8,6.9,61,0.00,,---,0.00,VWS V13.01,2013-11-05 05:04:00,
2013-11-05 00:05:00,49.3,36.4,30.26,East,101,4.0,5.8,61,0.00,,---,0.00,VWS V13.01,2013-11-05 05:05:00,
2013-11-05 00:06:00,49.5,36.6,30.26,SSE,151,4.5,5.8,61,0.00,,---,0.00,VWS V13.01,2013-11-05 05:06:00,
2013-11-05 00:11:00,49.6,36.8,30.26,SE,137,6.3,8.3,61,0.00,,---,0.00,VWS V13.01,2013-11-05 05:11:00,
2013-11-05 00:16:00,49.6,36.3,30.26,SW,226,4.5,8.3,60,0.00,,---,0.00,VWS V13.01,2013-11-05 05:16:00,
2013-11-05 00:21:00,49.8,36.5,30.26,SSW,194,4.0,8.3,60,0.00,,---,0.00,VWS V13.01,2013-11-05 05:21:00,
2013-11-05 00:26:00,50.0,36.2,30.26,East,99,5.8,6.7,59,0.00,,---,0.00,VWS V13.01,2013-11-05 05:26:00,
2013-11-05 00:31:00,50.0,36.2,30.26,South,189,4.5,5.4,59,0.00,,---,0.00,VWS V13.01,2013-11-05 05:31:00,
2013-11-05 00:36:00,49.8,36.1,30.26,South,179,3.6,7.8,59,0.00,,---,0.00,VWS V13.01,2013-11-05 05:36:00,
2013-11-05 00:41:00,50.0,36.7,30.26,SSW,206,6.7,6.7,60,0.00,,---,0.00,VWS V13.01,2013-11-05 05:41:00,
2013-11-05 00:46:00,49.8,36.5,30.26,SE,129,3.6,5.4,60,0.00,,---,0.00,VWS V13.01,2013-11-05 05:46:00,
2013-11-05 00:51:00,49.8,36.5,30.26,South,185,4.9,11.0,60,0.00,,---,0.00,VWS V13.01,2013-11-05 05:51:00,
2013-11-05 00:56:00,49.8,36.5,30.26,SSW,202,3.6,4.5,60,0.00,,---,0.00,VWS V13.01,2013-11-05 05:56:00,
2013-11-05 01:01:00,50.0,36.7,30.26,SE,137,5.4,7.8,60,0.00,,---,0.00,VWS V13.01,2013-11-05 06:01:00,
2013-11-05 01:06:00,50.0,36.7,30.26,South,182,3.6,4.5,60,0.00,,---,0.00,VWS V13.01,2013-11-05 06:06:00,
2013-11-05 01:11:00,50.0,36.7,30.26,SSW,204,5.8,5.8,60,0.00,,---,0.00,VWS V13.01,2013-11-05 06:11:00,
2013-11-05 01:16:00,50.0,36.7,30.26,SSW,205,0.0,4.9,60,0.00,,---,0.00,VWS V13.01,2013-11-05 06:16:00,
2013-11-05 01:21:00,50.0,36.7,30.26,SSW,205,0.0,4.9,60,0.00,,---,0.00,VWS V13.01,2013-11-05 06:21:00,
2013-11-05 01:26:00,50.2,36.8,30.26,SSW,205,3.1,4.9,60,0.00,,---,0.00,VWS V13.01,2013-11-05 06:26:00,
2013-11-05 01:31:00,50.2,36.8,30.26,SSW,205,3.1,4.5,60,0.00,,---,0.00,VWS V13.01,2013-11-05 06:31:00,
2013-11-05 01:36:00,50.2,36.8,30.26,SSW,205,3.1,5.4,60,0.00,,---,0.00,VWS V13.01,2013-11-05 06:36:00,
2013-11-05 01:41:00,50.2,36.8,30.26,SSW,200,4.5,6.7,60,0.00,,---,0.00,VWS V13.01,2013-11-05 06:41:00,
2013-11-05 01:46:00,50.2,36.8,30.26,SSW,200,4.5,5.8,60,0.00,,---,0.00,VWS V13.01,2013-11-05 06:46:00,
2013-11-05 01:51:00,50.4,37.0,30.26,South,178,4.5,8.3,60,0.00,,---,0.00,VWS V13.01,2013-11-05 06:51:00,
2013-11-05 01:56:00,50.4,37.0,30.26,South,191,4.0,6.3,60,0.00,,---,0.00,VWS V13.01,2013-11-05 06:56:00,
2013-11-05 02:01:00,50.4,37.0,30.26,SSW,196,3.6,4.5,60,0.00,,---,0.00,VWS V13.01,2013-11-05 07:01:00,
2013-11-05 02:07:00,50.5,36.8,30.26,South,178,4.0,9.6,59,0.00,,---,0.00,VWS V13.01,2013-11-05 07:07:00,
2013-11-05 02:12:00,50.5,36.8,30.26,South,189,4.5,5.4,59,0.00,,---,0.00,VWS V13.01,2013-11-05 07:12:00,
2013-11-05 02:17:00,50.5,36.8,30.26,SSW,200,4.5,5.8,59,0.00,,---,0.00,VWS V13.01,2013-11-05 07:17:00,
2013-11-05 02:22:00,50.5,36.8,30.26,SE,137,5.8,6.7,59,0.00,,---,0.00,VWS V13.01,2013-11-05 07:22:00,
2013-11-05 02:27:00,50.7,36.9,30.26,SSW,197,4.9,6.3,59,0.00,,---,0.00,VWS V13.01,2013-11-05 07:27:00,
2013-11-05 02:32:00,50.7,36.9,30.26,South,172,4.5,5.8,59,0.00,,---,0.00,VWS V13.01,2013-11-05 07:32:00,
2013-11-05 02:37:00,50.7,36.9,30.26,SSE,157,4.5,6.7,59,0.00,,---,0.00,VWS V13.01,2013-11-05 07:37:00,
2013-11-05 02:42:00,50.7,36.9,30.26,South,169,3.1,6.9,59,0.00,,---,0.00,VWS V13.01,2013-11-05 07:42:00,
2013-11-05 02:47:00,50.7,37.4,30.26,SSW,201,4.0,4.9,60,0.00,,---,0.00,VWS V13.01,2013-11-05 07:47:00,
2013-11-05 02:52:00,50.7,36.9,30.26,South,176,5.8,8.3,59,0.00,,---,0.00,VWS V13.01,2013-11-05 07:52:00,
2013-11-05 02:57:00,50.7,36.9,30.26,South,175,4.0,6.3,59,0.00,,---,0.00,VWS V13.01,2013-11-05 07:57:00,
2013-11-05 03:02:00,50.9,36.7,30.26,SSE,168,4.9,7.4,58,0.00,,---,0.00,VWS V13.01,2013-11-05 08:02:00,
2013-11-05 03:07:00,50.9,37.1,30.26,South,187,4.0,6.3,59,0.00,,---,0.00,VWS V13.01,2013-11-05 08:07:00,
2013-11-05 03:12:00,50.9,37.1,30.26,SSE,166,5.8,6.7,59,0.00,,---,0.00,VWS V13.01,2013-11-05 08:12:00,
2013-11-05 03:17:00,50.9,37.1,30.26,SSE,160,3.1,6.7,59,0.00,,---,0.00,VWS V13.01,2013-11-05 08:17:00,
2013-11-05 03:22:00,50.9,37.1,30.26,South,172,4.9,6.3,59,0.00,,---,0.00,VWS V13.01,2013-11-05 08:22:00,
2013-11-05 03:27:00,50.9,37.1,30.26,SW,215,6.7,6.7,59,0.00,,---,0.00,VWS V13.01,2013-11-05 08:27:00,
2013-11-05 03:32:00,50.9,37.1,30.26,SSE,150,6.7,7.4,59,0.00,,---,0.00,VWS V13.01,2013-11-05 08:32:00,
2013-11-05 03:37:00,51.1,37.3,30.26,South,187,4.9,8.3,59,0.00,,---,0.00,VWS V13.01,2013-11-05 08:37:00,
2013-11-05 03:42:00,51.1,36.8,30.26,South,186,6.7,7.8,58,0.00,,---,0.00,VWS V13.01,2013-11-05 08:42:00,
2013-11-05 03:47:00,51.1,36.8,30.26,South,191,7.8,10.5,58,0.00,,---,0.00,VWS V13.01,2013-11-05 08:47:00,
2013-11-05 03:52:00,51.1,36.8,30.26,SSW,197,5.8,10.5,58,0.00,,---,0.00,VWS V13.01,2013-11-05 08:52:00,
2013-11-05 03:57:00,51.1,36.8,30.26,SSE,164,6.3,6.9,58,0.00,,---,0.00,VWS V13.01,2013-11-05 08:57:00,
2013-11-05 04:02:00,51.3,37.0,30.26,South,177,6.7,7.4,58,0.00,,---,0.00,VWS V13.01,2013-11-05 09:02:00,
2013-11-05 04:07:00,51.3,37.0,30.26,SSW,196,5.4,6.7,58,0.00,,---,0.00,VWS V13.01,2013-11-05 09:07:00,
2013-11-05 04:12:00,51.3,37.0,30.26,SE,135,3.1,5.8,58,0.00,,---,0.00,VWS V13.01,2013-11-05 09:12:00,
2013-11-05 04:17:00,51.3,37.0,30.26,SE,138,5.8,7.8,58,0.00,,---,0.00,VWS V13.01,2013-11-05 09:17:00,
2013-11-05 04:22:00,51.3,37.0,30.26,SSE,155,4.9,6.7,58,0.00,,---,0.00,VWS V13.01,2013-11-05 09:22:00,
2013-11-05 04:27:00,51.3,37.0,30.26,SSW,211,3.6,6.3,58,0.00,,---,0.00,VWS V13.01,2013-11-05 09:27:00,
2013-11-05 04:32:00,51.3,37.0,30.26,SE,146,6.3,7.8,58,0.00,,---,0.00,VWS V13.01,2013-11-05 09:32:00,
2013-11-05 04:37:00,51.1,36.8,30.26,SSW,196,3.1,5.8,58,0.00,,---,0.00,VWS V13.01,2013-11-05 09:37:00,
2013-11-05 04:42:00,51.1,36.8,30.26,South,177,5.4,7.4,58,0.00,,---,0.00,VWS V13.01,2013-11-05 09:42:00,
2013-11-05 04:47:00,51.1,36.8,30.26,South,183,4.9,8.7,58,0.00,,---,0.00,VWS V13.01,2013-11-05 09:47:00,
2013-11-05 04:52:00,51.3,37.0,30.26,SSW,201,5.4,7.4,58,0.00,,---,0.00,VWS V13.01,2013-11-05 09:52:00,
2013-11-05 04:57:00,51.3,37.0,30.26,SSW,196,5.4,6.3,58,0.00,,---,0.00,VWS V13.01,2013-11-05 09:57:00,
2013-11-05 05:02:00,51.1,37.3,30.29,South,178,4.0,8.7,59,0.00,,---,0.00,VWS V13.01,2013-11-05 10:02:00,
2013-11-05 05:07:00,51.1,37.3,30.29,South,184,3.6,5.4,59,0.00,,---,0.00,VWS V13.01,2013-11-05 10:07:00,
2013-11-05 05:12:00,51.1,37.3,30.29,South,169,4.0,6.3,59,0.00,,---,0.00,VWS V13.01,2013-11-05 10:12:00,
2013-11-05 05:17:00,51.1,37.3,30.29,South,181,6.3,6.9,59,0.00,,---,0.00,VWS V13.01,2013-11-05 10:17:00,
2013-11-05 05:22:00,51.1,37.3,30.29,South,188,3.6,5.8,59,0.00,,---,0.00,VWS V13.01,2013-11-05 10:22:00,
2013-11-05 05:27:00,51.1,37.7,30.29,South,186,5.4,5.4,60,0.00,,---,0.00,VWS V13.01,2013-11-05 10:27:00,
2013-11-05 05:32:00,51.1,37.7,30.29,SSW,207,4.0,6.3,60,0.00,,---,0.00,VWS V13.01,2013-11-05 10:32:00,
2013-11-05 05:37:00,51.1,37.7,30.29,SSW,201,4.9,5.8,60,0.00,,---,0.00,VWS V13.01,2013-11-05 10:37:00,
2013-11-05 05:42:00,50.9,38.0,30.29,SSW,202,3.1,4.9,61,0.00,,---,0.00,VWS V13.01,2013-11-05 10:42:00,
2013-11-05 05:47:00,50.9,38.0,30.29,South,185,4.9,6.7,61,0.00,,---,0.00,VWS V13.01,2013-11-05 10:47:00,
2013-11-05 05:52:00,50.9,38.0,30.29,SSW,198,4.5,4.5,61,0.00,,---,0.00,VWS V13.01,2013-11-05 10:52:00,
2013-11-05 05:57:00,50.9,38.0,30.29,SSW,202,3.1,4.5,61,0.00,,---,0.00,VWS V13.01,2013-11-05 10:57:00,
2013-11-05 06:02:00,50.9,38.0,30.29,SSW,201,4.9,6.7,61,0.00,,---,0.00,VWS V13.01,2013-11-05 11:02:00,
2013-11-05 06:07:00,50.9,38.4,30.29,SSW,201,4.5,4.9,62,0.00,,---,0.00,VWS V13.01,2013-11-05 11:07:00,
2013-11-05 06:12:00,51.1,38.1,30.29,South,183,4.5,4.9,61,0.00,,---,0.00,VWS V13.01,2013-11-05 11:12:00,
2013-11-05 06:17:00,51.1,38.1,30.29,South,187,0.0,3.6,61,0.00,,---,0.00,VWS V13.01,2013-11-05 11:17:00,
2013-11-05 06:22:00,51.1,38.1,30.29,South,187,3.6,3.6,61,0.00,,---,0.00,VWS V13.01,2013-11-05 11:22:00,
2013-11-05 06:27:00,51.1,38.1,30.29,South,187,3.6,4.5,61,0.00,,---,0.00,VWS V13.01,2013-11-05 11:27:00,
2013-11-05 06:32:00,51.1,38.1,30.29,South,189,5.4,5.8,61,0.00,,---,0.00,VWS V13.01,2013-11-05 11:32:00,
2013-11-05 06:37:00,51.1,38.1,30.29,SSW,196,4.9,6.3,61,0.00,,---,0.00,VWS V13.01,2013-11-05 11:37:00,
2013-11-05 06:42:00,50.9,38.0,30.29,SSW,196,3.6,5.4,61,0.00,,---,0.00,VWS V13.01,2013-11-05 11:42:00,
2013-11-05 06:47:00,50.9,38.0,30.29,SSW,196,3.6,4.0,61,0.00,,---,0.00,VWS V13.01,2013-11-05 11:47:00,
2013-11-05 06:52:00,51.1,38.1,30.29,SSW,196,3.1,4.0,61,0.00,,---,0.00,VWS V13.01,2013-11-05 11:52:00,
2013-11-05 06:57:00,51.1,38.1,30.29,SSW,196,3.6,4.0,61,0.00,,---,0.00,VWS V13.01,2013-11-05 11:57:00,
2013-11-05 07:02:00,51.1,38.1,30.29,East,94,3.6,4.0,61,0.00,,---,0.00,VWS V13.01,2013-11-05 12:02:00,
2013-11-05 07:07:00,51.1,38.1,30.29,East,99,3.1,4.0,61,0.00,,---,0.00,VWS V13.01,2013-11-05 12:07:00,
2013-11-05 07:12:00,50.9,38.0,30.29,East,99,0.0,0.0,61,0.00,,---,0.00,VWS V13.01,2013-11-05 12:12:00,
2013-11-05 07:17:00,50.9,38.0,30.29,East,99,0.0,0.0,61,0.00,,---,0.00,VWS V13.01,2013-11-05 12:17:00,
2013-11-05 07:22:00,50.9,38.4,30.29,East,99,0.0,0.0,62,0.00,,---,0.00,VWS V13.01,2013-11-05 12:22:00,
2013-11-05 07:27:00,50.9,38.4,30.29,East,99,0.0,0.0,62,0.00,,---,0.00,VWS V13.01,2013-11-05 12:27:00,
2013-11-05 07:32:00,51.1,38.5,30.29,East,99,0.0,0.0,62,0.00,,---,0.00,VWS V13.01,2013-11-05 12:32:00,
2013-11-05 07:37:00,51.1,38.5,30.29,East,99,0.0,0.0,62,0.00,,---,0.00,VWS V13.01,2013-11-05 12:37:00,
2013-11-05 07:43:00,51.3,38.7,30.29,East,99,2.7,3.6,62,0.00,,---,0.00,VWS V13.01,2013-11-05 12:43:00,
2013-11-05 07:48:00,51.3,38.7,30.29,East,96,4.0,4.0,62,0.00,,---,0.00,VWS V13.01,2013-11-05 12:48:00,
2013-11-05 07:53:00,51.3,38.7,30.29,East,94,3.6,4.0,62,0.00,,---,0.00,VWS V13.01,2013-11-05 12:53:00,
2013-11-05 07:58:00,51.3,38.7,30.29,East,89,4.0,4.0,62,0.00,,---,0.00,VWS V13.01,2013-11-05 12:58:00,
2013-11-05 08:03:00,51.3,38.7,30.29,East,90,0.0,0.0,62,0.00,,---,0.00,VWS V13.01,2013-11-05 13:03:00,
2013-11-05 08:08:00,51.3,38.7,30.29,East,90,0.0,0.0,62,0.00,,---,0.00,VWS V13.01,2013-11-05 13:08:00,
2013-11-05 08:13:00,51.3,38.7,30.29,East,90,3.6,4.0,62,0.00,,---,0.00,VWS V13.01,2013-11-05 13:13:00,
2013-11-05 08:18:00,51.3,38.7,30.29,East,83,2.7,3.6,62,0.00,,---,0.00,VWS V13.01,2013-11-05 13:18:00,
2013-11-05 08:23:00,51.4,38.9,30.29,East,84,3.1,4.0,62,0.00,,---,0.00,VWS V13.01,2013-11-05 13:23:00,
2013-11-05 08:28:00,51.4,38.9,30.29,East,89,0.0,3.6,62,0.00,,---,0.00,VWS V13.01,2013-11-05 13:28:00,
2013-11-05 08:33:00,51.4,38.9,30.32,ENE,78,0.0,4.0,62,0.00,,---,0.00,VWS V13.01,2013-11-05 13:33:00,
2013-11-05 08:38:00,51.6,39.5,30.32,ENE,78,3.1,4.5,63,0.00,,---,0.00,VWS V13.01,2013-11-05 13:38:00,
2013-11-05 08:43:00,51.6,39.5,30.32,East,83,4.0,4.5,63,0.00,,---,0.00,VWS V13.01,2013-11-05 13:43:00,
2013-11-05 08:48:00,51.6,39.5,30.32,SSW,195,3.6,4.9,63,0.00,,---,0.00,VWS V13.01,2013-11-05 13:48:00,
2013-11-05 08:53:00,51.6,39.0,30.32,SSW,195,3.1,3.6,62,0.00,,---,0.00,VWS V13.01,2013-11-05 13:53:00,
2013-11-05 08:58:00,51.8,39.6,30.32,SSW,195,0.0,0.0,63,0.00,,---,0.00,VWS V13.01,2013-11-05 13:58:00,
2013-11-05 09:03:00,51.8,39.2,30.32,SSW,195,3.6,3.6,62,0.00,,---,0.00,VWS V13.01,2013-11-05 14:03:00,
2013-11-05 09:08:00,52.0,39.4,30.32,SSW,195,0.0,0.0,62,0.00,,---,0.00,VWS V13.01,2013-11-05 14:08:00,
2013-11-05 09:13:00,52.2,39.5,30.32,SSW,195,3.6,4.0,62,0.00,,---,0.00,VWS V13.01,2013-11-05 14:13:00,
2013-11-05 09:18:00,52.3,39.7,30.32,East,80,3.6,5.8,62,0.00,,---,0.00,VWS V13.01,2013-11-05 14:18:00,
2013-11-05 09:23:00,52.5,39.9,30.32,East,101,0.0,0.0,62,0.00,,---,0.00,VWS V13.01,2013-11-05 14:23:00,
2013-11-05 09:28:00,52.7,39.6,30.32,East,101,0.0,2.7,61,0.00,,---,0.00,VWS V13.01,2013-11-05 14:28:00,
2013-11-05 09:33:00,52.5,39.0,30.32,SSE,166,2.7,4.5,60,0.00,,---,0.00,VWS V13.01,2013-11-05 14:33:00,
2013-11-05 09:38:00,52.3,39.3,30.32,SW,214,4.0,5.4,61,0.00,,---,0.00,VWS V13.01,2013-11-05 14:38:00,
2013-11-05 09:43:00,52.3,38.9,30.32,ESE,114,4.0,5.8,60,0.00,,---,0.00,VWS V13.01,2013-11-05 14:43:00,
2013-11-05 09:48:00,52.3,38.9,30.32,SSE,161,3.1,4.5,60,0.00,,---,0.00,VWS V13.01,2013-11-05 14:48:00,
2013-11-05 09:53:00,52.3,39.3,30.32,SSE,161,3.1,4.5,61,0.00,,---,0.00,VWS V13.01,2013-11-05 14:53:00,
2013-11-05 09:58:00,52.3,39.3,30.32,ESE,114,2.7,5.8,61,0.00,,---,0.00,VWS V13.01,2013-11-05 14:58:00,
2013-11-05 10:03:00,52.5,39.0,30.32,SSE,147,4.0,6.3,60,0.00,,---,0.00,VWS V13.01,2013-11-05 15:03:00,
2013-11-05 10:08:00,52.5,39.0,30.32,East,90,5.8,6.3,60,0.00,,---,0.00,VWS V13.01,2013-11-05 15:08:00,
2013-11-05 10:13:00,52.7,39.6,30.32,ESE,103,3.1,4.5,61,0.00,,---,0.00,VWS V13.01,2013-11-05 15:13:00,
2013-11-05 10:18:00,52.7,39.2,30.32,ESE,114,3.1,3.6,60,0.00,,---,0.00,VWS V13.01,2013-11-05 15:18:00,
2013-11-05 10:23:00,52.9,39.4,30.32,SSE,166,4.9,5.4,60,0.00,,---,0.00,VWS V13.01,2013-11-05 15:23:00,
2013-11-05 10:28:00,52.7,39.2,30.32,South,175,5.4,5.4,60,0.00,,---,0.00,VWS V13.01,2013-11-05 15:28:00,
2013-11-05 10:34:00,52.9,39.4,30.32,SSW,192,3.1,4.5,60,0.00,,---,0.00,VWS V13.01,2013-11-05 15:34:00,
2013-11-05 10:39:00,53.1,40.0,30.32,SSW,192,3.6,4.9,61,0.00,,---,0.00,VWS V13.01,2013-11-05 15:39:00,
2013-11-05 10:44:00,53.2,40.2,30.32,SSW,192,5.4,5.4,61,0.00,,---,0.00,VWS V13.01,2013-11-05 15:44:00,
2013-11-05 10:49:00,53.6,40.1,30.32,South,188,5.8,6.7,60,0.00,,---,0.00,VWS V13.01,2013-11-05 15:49:00,
2013-11-05 10:54:00,53.6,39.6,30.32,South,190,4.0,5.4,59,0.00,,---,0.00,VWS V13.01,2013-11-05 15:54:00,
2013-11-05 10:59:00,53.8,39.8,30.32,SSE,159,3.1,6.3,59,0.00,,---,0.00,VWS V13.01,2013-11-05 15:59:00,
2013-11-05 11:04:00,54.0,40.4,30.32,SE,132,3.1,6.7,60,0.00,,---,0.00,VWS V13.01,2013-11-05 16:04:00,
2013-11-05 11:09:00,54.1,40.1,30.32,South,176,4.0,4.9,59,0.00,,---,0.00,VWS V13.01,2013-11-05 16:09:00,
2013-11-05 11:14:00,54.3,40.3,30.32,SE,129,3.6,6.7,59,0.00,,---,0.00,VWS V13.01,2013-11-05 16:14:00,
2013-11-05 11:19:00,54.5,40.0,30.32,SE,130,6.7,6.7,58,0.00,,---,0.00,VWS V13.01,2013-11-05 16:19:00,
2013-11-05 11:24:00,54.5,40.0,30.32,South,187,2.7,5.4,58,0.00,,---,0.00,VWS V13.01,2013-11-05 16:24:00,
2013-11-05 11:29:00,54.5,40.0,30.32,SSE,154,7.4,10.5,58,0.00,,---,0.00,VWS V13.01,2013-11-05 16:29:00,
2013-11-05 11:34:00,54.0,39.5,30.32,SW,214,5.8,5.8,58,0.00,,---,0.00,VWS V13.01,2013-11-05 16:34:00,
2013-11-05 11:39:00,53.8,39.8,30.32,SSW,201,3.6,4.5,59,0.00,,---,0.00,VWS V13.01,2013-11-05 16:39:00,
2013-11-05 11:44:00,53.6,40.1,30.32,SSW,202,4.9,6.7,60,0.00,,---,0.00,VWS V13.01,2013-11-05 16:44:00,
2013-11-05 11:49:00,53.8,40.2,30.32,SSE,162,4.0,6.7,60,0.00,,---,0.00,VWS V13.01,2013-11-05 16:49:00,
2013-11-05 11:54:00,53.8,40.2,30.32,SSE,160,5.4,6.9,60,0.00,,---,0.00,VWS V13.01,2013-11-05 16:54:00,
2013-11-05 11:59:00,53.8,40.2,30.32,SSE,150,6.7,6.7,60,0.00,,---,0.00,VWS V13.01,2013-11-05 16:59:00,
2013-11-05 12:04:00,53.8,40.2,30.32,SSW,195,3.6,5.8,60,0.00,,---,0.00,VWS V13.01,2013-11-05 17:04:00,
2013-11-05 12:09:00,53.8,40.7,30.32,South,185,3.1,5.8,61,0.00,,---,0.00,VWS V13.01,2013-11-05 17:09:00,
2013-11-05 12:14:00,53.8,40.7,30.32,SSE,147,4.5,7.4,61,0.00,,---,0.00,VWS V13.01,2013-11-05 17:14:00,
2013-11-05 12:19:00,54.0,40.8,30.29,SSE,147,4.0,7.4,61,0.00,,---,0.00,VWS V13.01,2013-11-05 17:19:00,
2013-11-05 12:24:00,54.1,41.0,30.29,ESE,113,3.6,5.4,61,0.00,,---,0.00,VWS V13.01,2013-11-05 17:24:00,
2013-11-05 12:29:00,54.0,40.8,30.29,South,179,4.5,6.7,61,0.00,,---,0.00,VWS V13.01,2013-11-05 17:29:00,
2013-11-05 12:34:00,53.8,40.7,30.29,SSW,209,4.9,6.7,61,0.00,,---,0.00,VWS V13.01,2013-11-05 17:34:00,
2013-11-05 12:39:00,53.8,41.1,30.29,South,180,6.7,6.7,62,0.00,,---,0.00,VWS V13.01,2013-11-05 17:39:00,
2013-11-05 12:44:00,53.8,41.5,30.29,SW,219,4.5,7.4,63,0.00,,---,0.00,VWS V13.01,2013-11-05 17:44:00,
2013-11-05 12:49:00,53.8,41.5,30.29,SE,146,5.8,6.7,63,0.00,,---,0.00,VWS V13.01,2013-11-05 17:49:00,
2013-11-05 12:54:00,53.8,41.9,30.29,SSE,148,4.5,6.7,64,0.00,,---,0.00,VWS V13.01,2013-11-05 17:54:00,
2013-11-05 12:59:00,54.0,42.1,30.29,SSE,161,4.5,6.3,64,0.00,,---,0.00,VWS V13.01,2013-11-05 17:59:00,
2013-11-05 13:04:00,54.1,42.2,30.29,South,181,5.8,6.3,64,0.00,,---,0.00,VWS V13.01,2013-11-05 18:04:00,
2013-11-05 13:09:00,54.1,42.7,30.29,ESE,115,5.8,6.9,65,0.00,,---,0.00,VWS V13.01,2013-11-05 18:09:00,
2013-11-05 13:14:00,54.1,42.7,30.29,SSE,148,6.3,6.9,65,0.00,,---,0.00,VWS V13.01,2013-11-05 18:14:00,
2013-11-05 13:19:00,54.1,42.7,30.29,East,88,6.3,7.4,65,0.00,,---,0.00,VWS V13.01,2013-11-05 18:19:00,
2013-11-05 13:24:00,54.1,42.7,30.29,SE,129,4.5,6.3,65,0.00,,---,0.00,VWS V13.01,2013-11-05 18:24:00,
2013-11-05 13:29:00,54.1,43.0,30.29,South,183,6.3,6.3,66,0.00,,---,0.00,VWS V13.01,2013-11-05 18:29:00,
2013-11-05 13:34:00,54.3,43.6,30.29,ESE,121,6.3,7.4,67,0.00,,---,0.00,VWS V13.01,2013-11-05 18:34:00,
2013-11-05 13:39:00,54.5,44.2,30.29,SSE,166,3.6,4.5,68,0.00,,---,0.00,VWS V13.01,2013-11-05 18:39:00,
2013-11-05 13:44:00,54.7,44.7,30.29,South,186,4.9,5.4,69,0.00,,---,0.00,VWS V13.01,2013-11-05 18:44:00,
2013-11-05 13:49:00,54.9,44.9,30.26,ESE,115,4.0,5.8,69,0.00,,---,0.00,VWS V13.01,2013-11-05 18:49:00,
2013-11-05 13:54:00,55.2,45.2,30.26,SSE,156,6.9,7.4,69,0.00,,---,0.00,VWS V13.01,2013-11-05 18:54:00,
2013-11-05 13:59:00,55.2,45.2,30.26,SSE,164,6.3,6.7,69,0.00,,---,0.00,VWS V13.01,2013-11-05 18:59:00,
2013-11-05 14:04:00,55.2,45.2,30.29,SSE,168,4.5,6.9,69,0.00,,---,0.00,VWS V13.01,2013-11-05 19:04:00,
2013-11-05 14:09:00,55.2,45.2,30.29,SSE,161,5.8,5.8,69,0.00,,---,0.00,VWS V13.01,2013-11-05 19:09:00,
2013-11-05 14:14:00,55.2,45.2,30.29,ESE,114,5.8,7.4,69,0.00,,---,0.00,VWS V13.01,2013-11-05 19:14:00,
2013-11-05 14:19:00,55.2,45.2,30.26,East,91,7.4,7.4,69,0.00,,---,0.00,VWS V13.01,2013-11-05 19:19:00,
2013-11-05 14:24:00,55.0,45.1,30.26,SSE,161,4.5,7.4,69,0.00,,---,0.00,VWS V13.01,2013-11-05 19:24:00,
2013-11-05 14:29:00,55.2,45.2,30.26,SE,140,4.0,7.4,69,0.00,,---,0.00,VWS V13.01,2013-11-05 19:29:00,
2013-11-05 14:34:00,55.2,44.9,30.26,South,184,6.7,7.4,68,0.00,,---,0.00,VWS V13.01,2013-11-05 19:34:00,
2013-11-05 14:39:00,55.0,44.7,30.26,SE,134,6.7,7.8,68,0.00,,---,0.00,VWS V13.01,2013-11-05 19:39:00,
2013-11-05 14:44:00,55.4,45.0,30.26,ESE,117,4.0,7.4,68,0.00,,---,0.00,VWS V13.01,2013-11-05 19:44:00,
2013-11-05 14:49:00,55.6,44.8,30.26,East,96,4.0,6.3,67,0.00,,---,0.00,VWS V13.01,2013-11-05 19:49:00,
2013-11-05 14:54:00,55.6,44.8,30.26,South,175,4.0,4.0,67,0.00,,---,0.00,VWS V13.01,2013-11-05 19:54:00,
2013-11-05 14:59:00,55.9,45.2,30.26,SE,144,3.6,6.3,67,0.00,,---,0.00,VWS V13.01,2013-11-05 19:59:00,
2013-11-05 15:04:00,55.8,44.6,30.26,ESE,115,4.9,5.8,66,0.00,,---,0.00,VWS V13.01,2013-11-05 20:04:00,
2013-11-05 15:09:00,55.9,44.4,30.26,SSW,210,4.0,6.9,65,0.00,,---,0.00,VWS V13.01,2013-11-05 20:09:00,
2013-11-05 15:14:00,55.9,44.4,30.26,East,83,3.6,4.5,65,0.00,,---,0.00,VWS V13.01,2013-11-05 20:14:00,
2013-11-05 15:19:00,56.1,44.5,30.26,South,188,4.5,4.9,65,0.00,,---,0.00,VWS V13.01,2013-11-05 20:19:00,
2013-11-05 15:24:00,56.3,44.3,30.26,South,188,2.7,3.6,64,0.00,,---,0.00,VWS V13.01,2013-11-05 20:24:00,
2013-11-05 15:29:00,56.3,43.9,30.26,ESE,106,4.0,4.9,63,0.00,,---,0.00,VWS V13.01,2013-11-05 20:29:00,
2013-11-05 15:34:00,56.5,44.0,30.26,South,178,4.0,5.8,63,0.00,,---,0.00,VWS V13.01,2013-11-05 20:34:00,
2013-11-05 15:39:00,56.5,43.6,30.26,East,85,4.5,4.5,62,0.00,,---,0.00,VWS V13.01,2013-11-05 20:39:00,
2013-11-05 15:44:00,56.7,43.8,30.26,ENE,76,3.6,4.9,62,0.00,,---,0.00,VWS V13.01,2013-11-05 20:44:00,
2013-11-05 15:49:00,56.7,43.4,30.23,ENE,77,4.5,6.3,61,0.00,,---,0.00,VWS V13.01,2013-11-05 20:49:00,
2013-11-05 15:54:00,56.5,42.8,30.23,South,184,5.8,5.8,60,0.00,,---,0.00,VWS V13.01,2013-11-05 20:54:00,
2013-11-05 15:59:00,56.5,42.8,30.23,South,184,4.0,4.9,60,0.00,,---,0.00,VWS V13.01,2013-11-05 20:59:00,
2013-11-05 16:04:00,56.5,43.2,30.23,South,184,4.0,5.4,61,0.00,,---,0.00,VWS V13.01,2013-11-05 21:04:00,
2013-11-05 16:09:00,56.5,43.2,30.23,SE,127,4.5,6.7,61,0.00,,---,0.00,VWS V13.01,2013-11-05 21:09:00,
2013-11-05 16:14:00,56.3,43.0,30.23,East,97,3.1,4.9,61,0.00,,---,0.00,VWS V13.01,2013-11-05 21:14:00,
2013-11-05 16:19:00,56.3,43.5,30.23,ESE,105,4.9,6.9,62,0.00,,---,0.00,VWS V13.01,2013-11-05 21:19:00,
2013-11-05 16:24:00,56.1,43.3,30.23,East,90,4.5,5.8,62,0.00,,---,0.00,VWS V13.01,2013-11-05 21:24:00,
2013-11-05 16:29:00,55.9,42.7,30.23,SSE,159,4.5,5.4,61,0.00,,---,0.00,VWS V13.01,2013-11-05 21:29:00,
2013-11-05 16:34:00,55.8,42.5,30.23,ENE,76,4.5,5.8,61,0.00,,---,0.00,VWS V13.01,2013-11-05 21:34:00,
2013-11-05 16:39:00,55.8,43.0,30.23,East,93,4.0,5.4,62,0.00,,---,0.00,VWS V13.01,2013-11-05 21:39:00,
2013-11-05 16:44:00,55.8,43.0,30.23,East,84,4.0,5.8,62,0.00,,---,0.00,VWS V13.01,2013-11-05 21:44:00,
2013-11-05 16:49:00,55.6,42.8,30.23,East,79,2.7,4.5,62,0.00,,---,0.00,VWS V13.01,2013-11-05 21:49:00,
2013-11-05 16:54:00,55.6,42.8,30.23,ENE,66,3.6,4.5,62,0.00,,---,0.00,VWS V13.01,2013-11-05 21:54:00,
2013-11-05 16:59:00,55.6,43.2,30.23,East,85,4.9,4.9,63,0.00,,---,0.00,VWS V13.01,2013-11-05 21:59:00,
2013-11-05 17:04:00,55.4,43.0,30.23,East,91,4.0,4.5,63,0.00,,---,0.00,VWS V13.01,2013-11-05 22:04:00,
2013-11-05 17:09:00,55.4,43.0,30.23,SE,127,4.5,6.3,63,0.00,,---,0.00,VWS V13.01,2013-11-05 22:09:00,
2013-11-05 17:14:00,55.2,42.9,30.23,East,87,3.1,4.5,63,0.00,,---,0.00,VWS V13.01,2013-11-05 22:14:00,
2013-11-05 17:19:00,55.2,42.9,30.23,ENE,77,6.3,6.3,63,0.00,,---,0.00,VWS V13.01,2013-11-05 22:19:00,
2013-11-05 17:24:00,55.0,43.1,30.23,NE,55,3.6,5.4,64,0.00,,---,0.00,VWS V13.01,2013-11-05 22:24:00,
2013-11-05 17:29:00,54.9,42.9,30.23,East,85,4.0,5.4,64,0.00,,---,0.00,VWS V13.01,2013-11-05 22:29:00,
2013-11-05 17:34:00,54.9,42.9,30.20,East,97,3.6,5.8,64,0.00,,---,0.00,VWS V13.01,2013-11-05 22:34:00,
2013-11-05 17:39:00,54.7,43.2,30.20,East,87,3.6,6.7,65,0.00,,---,0.00,VWS V13.01,2013-11-05 22:39:00,
2013-11-05 17:44:00,54.7,43.2,30.20,East,97,4.5,5.4,65,0.00,,---,0.00,VWS V13.01,2013-11-05 22:44:00,
2013-11-05 17:49:00,54.5,43.0,30.20,East,92,4.5,7.4,65,0.00,,---,0.00,VWS V13.01,2013-11-05 22:49:00,
2013-11-05 17:54:00,54.5,43.0,30.20,East,101,6.3,6.9,65,0.00,,---,0.00,VWS V13.01,2013-11-05 22:54:00,
2013-11-05 17:59:00,54.5,42.6,30.20,East,97,4.5,5.4,64,0.00,,---,0.00,VWS V13.01,2013-11-05 22:59:00,
2013-11-05 18:04:00,54.5,43.0,30.20,East,89,4.0,6.3,65,0.00,,---,0.00,VWS V13.01,2013-11-05 23:04:00,
2013-11-05 18:09:00,54.5,43.0,30.20,ENE,77,4.9,5.4,65,0.00,,---,0.00,VWS V13.01,2013-11-05 23:09:00,
2013-11-05 18:14:00,54.3,42.8,30.20,East,85,3.6,6.3,65,0.00,,---,0.00,VWS V13.01,2013-11-05 23:14:00,
2013-11-05 18:19:00,54.3,42.8,30.20,East,89,4.0,4.5,65,0.00,,---,0.00,VWS V13.01,2013-11-05 23:19:00,
2013-11-05 18:24:00,54.3,42.8,30.20,ENE,68,5.8,5.8,65,0.00,,---,0.00,VWS V13.01,2013-11-05 23:24:00,
2013-11-05 18:29:00,54.1,42.7,30.20,East,84,4.5,6.3,65,0.00,,---,0.00,VWS V13.01,2013-11-05 23:29:00,
2013-11-05 18:34:00,54.1,42.7,30.20,East,101,4.5,5.8,65,0.00,,---,0.00,VWS V13.01,2013-11-05 23:34:00,
2013-11-05 18:39:00,54.1,42.7,30.20,ENE,78,4.0,6.7,65,0.00,,---,0.00,VWS V13.01,2013-11-05 23:39:00,
2013-11-05 18:44:00,54.1,42.7,30.20,East,87,4.0,6.7,65,0.00,,---,0.00,VWS V13.01,2013-11-05 23:44:00,
2013-11-05 18:49:00,54.1,42.7,30.20,East,93,3.1,4.5,65,0.00,,---,0.00,VWS V13.01,2013-11-05 23:49:00,
2013-11-05 18:54:00,54.1,42.7,30.20,East,89,4.9,6.3,65,0.00,,---,0.00,VWS V13.01,2013-11-05 23:54:00,
2013-11-05 18:59:00,54.1,42.7,30.20,ENE,73,5.4,5.4,65,0.00,,---,0.00,VWS V13.01,2013-11-05 23:59:00,
2013-11-05 19:04:00,54.1,42.7,30.20,East,94,4.5,5.8,65,0.00,,---,0.00,VWS V13.01,2013-11-06 00:04:00,
2013-11-05 19:09:00,54.0,42.5,30.20,ESE,104,4.0,7.8,65,0.00,,---,0.00,VWS V13.01,2013-11-06 00:09:00,
2013-11-05 19:14:00,54.0,42.5,30.20,ESE,110,4.5,5.4,65,0.00,,---,0.00,VWS V13.01,2013-11-06 00:14:00,
2013-11-05 19:19:00,54.0,42.5,30.20,East,81,6.3,7.4,65,0.00,,---,0.00,VWS V13.01,2013-11-06 00:19:00,
2013-11-05 19:24:00,54.0,42.1,30.20,SE,128,4.0,5.8,64,0.00,,---,0.00,VWS V13.01,2013-11-06 00:24:00,
2013-11-05 19:29:00,54.0,42.1,30.20,East,86,5.8,7.8,64,0.00,,---,0.00,VWS V13.01,2013-11-06 00:29:00,
2013-11-05 19:34:00,54.0,42.1,30.20,East,93,4.5,6.3,64,0.00,,---,0.00,VWS V13.01,2013-11-06 00:34:00,
2013-11-05 19:39:00,54.0,41.7,30.20,East,86,4.0,7.4,63,0.00,,---,0.00,VWS V13.01,2013-11-06 00:39:00,
2013-11-05 19:44:00,54.0,41.7,30.20,ESE,112,3.6,5.4,63,0.00,,---,0.00,VWS V13.01,2013-11-06 00:44:00,
2013-11-05 19:49:00,54.0,41.7,30.20,East,94,4.9,6.7,63,0.00,,---,0.00,VWS V13.01,2013-11-06 00:49:00,
2013-11-05 19:54:00,54.0,41.7,30.20,East,86,4.9,6.3,63,0.00,,---,0.00,VWS V13.01,2013-11-06 00:54:00,
2013-11-05 19:59:00,54.0,41.2,30.20,East,91,4.5,6.3,62,0.00,,---,0.00,VWS V13.01,2013-11-06 00:59:00,
2013-11-05 20:04:00,54.0,41.2,30.20,East,89,5.4,8.7,62,0.00,,---,0.00,VWS V13.01,2013-11-06 01:04:00,
2013-11-05 20:09:00,54.0,40.8,30.20,East,97,4.0,7.4,61,0.00,,---,0.00,VWS V13.01,2013-11-06 01:09:00,
2013-11-05 20:14:00,54.0,40.8,30.20,East,80,4.5,6.9,61,0.00,,---,0.00,VWS V13.01,2013-11-06 01:14:00,
2013-11-05 20:19:00,54.0,40.4,30.17,East,93,6.7,6.9,60,0.00,,---,0.00,VWS V13.01,2013-11-06 01:19:00,
2013-11-05 20:24:00,54.0,40.4,30.17,East,90,3.6,6.9,60,0.00,,---,0.00,VWS V13.01,2013-11-06 01:24:00,
2013-11-05 20:29:00,54.0,40.0,30.17,SE,144,6.7,8.7,59,0.00,,---,0.00,VWS V13.01,2013-11-06 01:29:00,
2013-11-05 20:34:00,53.8,39.8,30.17,East,92,5.8,7.8,59,0.00,,---,0.00,VWS V13.01,2013-11-06 01:34:00,
2013-11-05 20:39:00,53.8,39.8,30.17,SE,138,4.0,8.3,59,0.00,,---,0.00,VWS V13.01,2013-11-06 01:39:00,
2013-11-05 20:44:00,53.8,39.4,30.17,ENE,75,5.4,9.6,58,0.00,,---,0.00,VWS V13.01,2013-11-06 01:44:00,
2013-11-05 20:49:00,53.8,39.4,30.17,ESE,119,5.8,8.3,58,0.00,,---,0.00,VWS V13.01,2013-11-06 01:49:00,
2013-11-05 20:54:00,53.8,39.4,30.17,SE,137,8.7,10.1,58,0.00,,---,0.00,VWS V13.01,2013-11-06 01:54:00,
2013-11-05 20:59:00,53.8,38.9,30.17,ESE,116,5.4,7.4,57,0.00,,---,0.00,VWS V13.01,2013-11-06 01:59:00,
2013-11-05 21:04:00,53.8,38.5,30.17,East,95,4.9,6.7,56,0.00,,---,0.00,VWS V13.01,2013-11-06 02:04:00,
2013-11-05 21:09:00,53.8,38.5,30.17,SE,127,6.9,6.9,56,0.00,,---,0.00,VWS V13.01,2013-11-06 02:09:00,
2013-11-05 21:14:00,53.8,38.5,30.17,SE,125,6.3,7.4,56,0.00,,---,0.00,VWS V13.01,2013-11-06 02:14:00,
2013-11-05 21:19:00,53.8,38.5,30.17,SE,137,9.2,11.2,56,0.00,,---,0.00,VWS V13.01,2013-11-06 02:19:00,
2013-11-05 21:24:00,53.8,38.5,30.17,ESE,111,5.4,6.9,56,0.00,,---,0.00,VWS V13.01,2013-11-06 02:24:00,
2013-11-05 21:29:00,53.6,37.8,30.17,SE,141,6.7,7.8,55,0.00,,---,0.00,VWS V13.01,2013-11-06 02:29:00,
2013-11-05 21:34:00,53.6,37.8,30.14,ESE,109,5.8,7.4,55,0.00,,---,0.00,VWS V13.01,2013-11-06 02:34:00,
2013-11-05 21:40:00,53.6,37.8,30.14,East,84,6.7,7.4,55,0.00,,---,0.00,VWS V13.01,2013-11-06 02:40:00,
2013-11-05 21:45:00,53.4,37.7,30.14,SE,139,4.0,6.9,55,0.00,,---,0.00,VWS V13.01,2013-11-06 02:45:00,
2013-11-05 21:50:00,53.4,37.7,30.14,SE,124,4.9,6.7,55,0.00,,---,0.00,VWS V13.01,2013-11-06 02:50:00,
2013-11-05 21:55:00,53.4,37.7,30.14,East,84,3.1,6.7,55,0.00,,---,0.00,VWS V13.01,2013-11-06 02:55:00,
2013-11-05 22:00:00,53.2,38.0,30.14,SE,137,4.5,7.8,56,0.00,,---,0.00,VWS V13.01,2013-11-06 03:00:00,
2013-11-05 22:05:00,53.2,38.0,30.14,ESE,109,4.0,6.3,56,0.00,,---,0.00,VWS V13.01,2013-11-06 03:05:00,
2013-11-05 22:11:00,53.4,38.1,30.14,SE,137,4.0,6.9,56,0.00,,---,0.00,VWS V13.01,2013-11-06 03:11:00,
2013-11-05 22:16:00,53.6,38.3,30.14,ESE,112,5.4,6.9,56,0.00,,---,0.00,VWS V13.01,2013-11-06 03:16:00,
2013-11-05 22:21:00,53.6,38.3,30.14,East,96,5.8,5.8,56,0.00,,---,0.00,VWS V13.01,2013-11-06 03:21:00,
2013-11-05 22:26:00,53.8,38.0,30.14,ENE,72,10.5,10.5,55,0.00,,---,0.00,VWS V13.01,2013-11-06 03:26:00,
2013-11-05 22:31:00,54.0,37.7,30.14,SE,136,9.6,9.6,54,0.00,,---,0.00,VWS V13.01,2013-11-06 03:31:00,
2013-11-05 22:36:00,54.0,37.2,30.14,ESE,105,4.9,10.5,53,0.00,,---,0.00,VWS V13.01,2013-11-06 03:36:00,
2013-11-05 22:41:00,54.1,37.4,30.14,ESE,114,6.7,7.8,53,0.00,,---,0.00,VWS V13.01,2013-11-06 03:41:00,
2013-11-05 22:46:00,54.1,37.4,30.14,SE,138,5.8,8.7,53,0.00,,---,0.00,VWS V13.01,2013-11-06 03:46:00,
2013-11-05 22:51:00,54.1,37.4,30.14,East,96,6.9,6.9,53,0.00,,---,0.00,VWS V13.01,2013-11-06 03:51:00,
2013-11-05 22:56:00,54.1,37.4,30.14,East,93,7.4,10.5,53,0.00,,---,0.00,VWS V13.01,2013-11-06 03:56:00,
2013-11-05 23:01:00,54.3,37.6,30.14,ESE,123,7.4,12.1,53,0.00,,---,0.00,VWS V13.01,2013-11-06 04:01:00,
2013-11-05 23:06:00,54.3,37.1,30.11,ESE,117,5.8,6.7,52,0.00,,---,0.00,VWS V13.01,2013-11-06 04:06:00,
2013-11-05 23:11:00,54.3,37.1,30.11,SE,144,4.9,8.3,52,0.00,,---,0.00,VWS V13.01,2013-11-06 04:11:00,
2013-11-05 23:16:00,54.3,37.1,30.11,ESE,109,6.3,9.6,52,0.00,,---,0.00,VWS V13.01,2013-11-06 04:16:00,
2013-11-05 23:21:00,54.5,37.2,30.11,ESE,108,5.8,7.4,52,0.00,,---,0.00,VWS V13.01,2013-11-06 04:21:00,
2013-11-05 23:26:00,54.5,37.2,30.11,SE,133,8.3,9.2,52,0.00,,---,0.00,VWS V13.01,2013-11-06 04:26:00,
2013-11-05 23:31:00,54.5,36.8,30.11,SE,125,7.8,11.2,51,0.00,,---,0.00,VWS V13.01,2013-11-06 04:31:00,
2013-11-05 23:36:00,54.5,37.2,30.11,SE,139,6.7,7.4,52,0.00,,---,0.00,VWS V13.01,2013-11-06 04:36:00,
2013-11-05 23:41:00,54.5,36.8,30.11,South,169,11.6,11.6,51,0.00,,---,0.00,VWS V13.01,2013-11-06 04:41:00,
2013-11-05 23:46:00,54.5,37.2,30.11,South,172,6.7,7.8,52,0.00,,---,0.00,VWS V13.01,2013-11-06 04:46:00,
2013-11-05 23:51:00,54.5,37.2,30.11,East,101,5.4,8.3,52,0.00,,---,0.00,VWS V13.01,2013-11-06 04:51:00,
2013-11-05 23:56:00,54.5,37.2,30.11,ESE,105,4.9,6.3,52,0.00,,---,0.00,VWS V13.01,2013-11-06 04:56:00,